Погода в Усть-Сарапулке

Россия / Удмуртская Республика     56°23′33″N   53°51′13″E
темп.,
°C
ветер,
м/с
пор.,
м/с
влажн.,
%
обл.,
%
осадки,
мм/ч
давл.,
гПа
погр.,
м
15 мая, сб
сб1501:00+21ююз514480 0.0 1019356
04:00+17юз4116248 0.0 1020217
07:00+19юз376438 0.0 1020207
10:00+25ююз454790 0.0 1020559
13:00+28ююз683174 0.0 10191064
16:00+28юз5937100 0.0 10191065
19:00+24ююз41151100 0.0 1019257
22:00+20ююз41256100 0.0 1018214
16 мая, вс
вс1601:00+18юз4115856 0.0 1019187
04:00+17юз36605 0.0 101989
07:00+20ююз38553 0.0 1019215
10:00+26ююз58385 0.0 1019649
13:00+29юз68295 0.0 10182361
16:00+30юз58295 0.0 10173056
19:00+25юз384863 0.0 1016186
22:00+21юз355164 0.0 101779
17 мая, пн
пн1701:00+19ююз336159 0.0 101738
04:00+17зюз356893 0.0 101773
07:00+20зюз476126 0.0 1018237
10:00+25зюз35455 0.0 1018754
13:00+28зюз5836100 0.0 10181851
16:00+29зюз69335 0.0 10172549
19:00+25зсз355093 0.0 1017110
22:00+20зсз22557 0.0 101815
18 мая, вт
вт1801:00+18з11675 0.0 101811
04:00+17сз1175100 0.0 101911
07:00+20с116440 0.3 1019130
10:00+24ссз224948 0.3 1019598
13:00+28зсз234041 0.0 10181375
16:00+29сз253227 0.0 10172942
19:00+26зсз224231 0.0 101715
22:00+20вюв37646 0.0 1018125
19 мая, ср
ср1901:00+18в357276 0.0 1018105
04:00+16вюв26815 0.2 1019112
07:00+18вюв46681 0.2 1020276
10:00+24вюв45480 0.2 1019737
13:00+27юв55400 0.0 10191482
16:00+27юв45401 0.0 10181788
19:00+24вюв47530 0.0 1017236
22:00+17вюв310798 0.9 1018173